User: anonymous
Location: *
(40.4270°N, 9.4940°E)
Time: 23:19:55
(UTC+02:00)
Language:

Okean 2 - Orbit

View from above orbital plane
View from above orbital plane
View from above satellite
View from above satellite

Ground track
Ground track

The orbit data is extracted from the following two-line orbital elements,

1 20510U 90018A   14245.46939752  .00001201  00000-0  10425-3 0  8074
2 20510 082.5145 068.2819 0013651 173.1577 246.5995 14.96123594328935
Epoch (UTC): 02 September 2014 11:15:55
Eccentricity: 0.0013651
inclination: 82.5145°
perigee height: 569 km
apogee height: 588 km
right ascension of ascending node: 68.2819°
argument of perigee: 173.1577°
revolutions per day: 14.96123594
mean anomaly at epoch: 246.5995°
orbit number at epoch: 32893

The dashed part of the orbit path shows where the satellite is in the earth's shadow,  

DLR